Tracking 19817 objects as of 19-Aug-2019
HD Live streaming from Space Station
objects crossing your sky now

SL-8 R/B

Track SL-8 R/B now!
10-day predictions


NORAD ID: 19910
Int'l Code: 1989-025J
Perigee: 1,480.2 km
Apogee: 1,690.4 km
Inclination: 74.0 °
Period: 117.7 minutes
Semi major axis: 7956 km
RCS: 5.745 m2 (large)
Launch date: March 24, 1989
Source: Commonwealth of Independent States (former USSR) (CIS)
Launch site: PLESETSK MISSILE AND SPACE COMPLEX (PKMTR)

Note: This is a ROCKET BODY
aabbcc
Your satellite tracking list
Your tracking list is empty




NASA's NSSDC Master Catalog

Two Line Element Set (TLE):
1 19910U 89025J   19230.87193803 -.00000051 +00000-0 -31716-3 0  9997
2 19910 074.0078 025.1557 0132085 265.1625 204.1485 12.23310949357552
Source of the keplerian elements: AFSPC